Weather History for PAOM - December, 2012

Change the Weather History Date:

Saturday, December 29, 2012

  Actual Average Record
Temperature  
Mean Temperature 30 °F -  
Max Temperature 34 °F 15 °F 38 °F (1993)
Min Temperature 26 °F -1 °F -42 °F (1929)
Degree Days  
Heating Degree Days 35 58  
Month to date heating degree days 1841 1604  
Since 1 July heating degree days 6056 5702  
Cooling Degree Days 0    
Month to date cooling degree days 0  
Year to date cooling degree days 0  
Moisture  
Dew Point 26 °F    
Average Humidity 0    
Maximum Humidity 0    
Minimum Humidity 0    
Precipitation  
Precipitation 0.02 in 0.04 in 0.69 in (1951)
Month to date precipitation 0.54 1.01  
Year to date precipitation 18.67 16.74  
Snow  
Snow 0.20 in 0.50 in 6.90 in (1951)
Month to date snowfall 13.9 13.5  
Since 1 July snowfall 16.5 30.8  
Snow Depth 14.00 in    
Sea Level Pressure  
Sea Level Pressure 29.14 in    
Wind  
Wind Speed 15 mph (NE)    
Max Wind Speed 26 mph    
Max Gust Speed 33 mph    
Visibility 7 miles    
Events Snow    
T = Trace of Precipitation, MM = Missing Value Source: NWS Daily Summary

Daily Weather History Graph

Daily Weather History Graph

Search for Another Location

Airport or City:

Trip Planner

Search our weather history database for the weather conditions in past years. The results will help you decide how hot, cold, wet, or windy it might be!

Date:

Astronomy

Dec. 29, 2012 Rise Set
Actual Time 12:01 PM AKST 4:06 PM AKST
Civil Twilight 10:41 AM AKST 5:27 PM AKST
Nautical Twilight 9:31 AM AKST 6:37 PM AKST
Astronomical Twilight 8:30 AM AKST 7:37 PM AKST
Moon 6:54 PM AKST (12/29) 11:45 AM AKST (12/29)
Length of Visible Light 6h 46m
Length of Day
4h 05m
Full, 98% of the Moon is Illuminated
Dec 29
Full
Jan 4
Last Quarter
Jan 11
New
Jan 18
First Quarter
Jan 26
Full

Hourly Weather History & Observations

Time (AKST) Temp. Windchill Dew Point Humidity Pressure Visibility Wind Dir Wind Speed Gust Speed Precip Events Conditions
12:53 AM 28.9 °F 21.1 °F 21.9 °F 75% 29.24 in 10.0 mi ENE 8.1 mph - N/A   Mostly Cloudy
1:10 AM 28.4 °F 19.7 °F 23.0 °F 80% 29.23 in 10.0 mi NE 9.2 mph - N/A   Mostly Cloudy
1:29 AM 28.4 °F 19.1 °F 23.0 °F 80% 29.23 in 10.0 mi NE 10.4 mph - N/A   Scattered Clouds
1:53 AM 28.0 °F 18.1 °F 21.9 °F 78% 29.22 in 10.0 mi NNE 11.5 mph - N/A   Mostly Cloudy
2:53 AM 30.0 °F 20.0 °F 23.0 °F 75% 29.19 in 10.0 mi NNE 12.7 mph - N/A   Mostly Cloudy
3:31 AM 30.2 °F 20.2 °F 23.0 °F 75% 29.18 in 10.0 mi NNE 12.7 mph - N/A   Mostly Cloudy
3:40 AM 30.2 °F 19.3 °F 24.8 °F 80% 29.17 in 10.0 mi NE 15.0 mph 20.7 mph N/A   Overcast
3:53 AM 32.0 °F 22.5 °F 24.1 °F 73% 29.17 in 10.0 mi NE 12.7 mph - N/A   Overcast
4:53 AM 32.0 °F 20.5 °F 27.0 °F 82% 29.15 in 7.0 mi NNE 18.4 mph - 0.00 in Snow Light Snow
5:53 AM 30.0 °F 18.3 °F 25.0 °F 82% 29.13 in 10.0 mi NNE 17.3 mph - 0.00 in Snow Light Snow
6:18 AM 30.2 °F 18.9 °F 26.6 °F 86% 29.12 in 2.5 mi NE 16.1 mph - 0.00 in Snow Light Snow
6:32 AM 28.4 °F 15.8 °F 26.6 °F 93% 29.12 in 1.5 mi NE 18.4 mph - 0.00 in Snow Light Snow
6:50 AM 28.4 °F 15.1 °F 26.6 °F 93% 29.11 in 3.0 mi NNE 20.7 mph - 0.00 in Snow Light Snow
6:51 AM 28.9 °F 15.8 °F 27.0 °F 92% 29.11 in 3.0 mi NNE 20.7 mph - 0.00 in Snow Light Snow
7:07 AM 28.4 °F 15.1 °F 26.6 °F 93% 29.10 in 4.0 mi NNE 20.7 mph 26.5 mph 0.00 in Snow Light Snow
7:17 AM 28.4 °F 13.8 °F 26.6 °F 93% 29.09 in 1.8 mi NNE 25.3 mph 31.1 mph 0.00 in Snow Light Snow
7:40 AM 28.4 °F 15.8 °F 26.6 °F 93% 29.08 in 3.0 mi NNE 18.4 mph - 0.00 in Snow Light Snow
7:53 AM 28.9 °F 16.5 °F 27.0 °F 92% 29.07 in 5.0 mi NNE 18.4 mph - 0.00 in Snow Light Snow
8:09 AM 30.2 °F 18.5 °F 26.6 °F 86% 29.07 in 6.0 mi NE 17.3 mph - 0.00 in Snow Light Snow
8:53 AM 30.9 °F 17.8 °F 26.1 °F 82% 29.07 in 7.0 mi NE 23.0 mph 29.9 mph 0.00 in Snow Light Snow
9:18 AM 30.2 °F 18.1 °F 26.6 °F 86% 29.06 in 2.5 mi NE 18.4 mph - 0.01 in Snow Light Snow
9:21 AM 30.2 °F 17.8 °F 26.6 °F 86% 29.06 in 1.8 mi NE 19.6 mph - 0.01 in Snow Light Snow
9:37 AM 28.4 °F 15.1 °F 26.6 °F 93% 29.07 in 2.5 mi NE 20.7 mph 26.5 mph 0.01 in Snow Light Snow
9:49 AM 28.4 °F 14.1 °F 26.6 °F 93% 29.06 in 1.5 mi NE 24.2 mph 29.9 mph 0.01 in Snow Light Snow
9:53 AM 28.9 °F 15.4 °F 27.0 °F 92% 29.07 in 1.5 mi NE 21.9 mph 29.9 mph 0.01 in Snow Light Snow
10:12 AM 28.4 °F 15.1 °F 26.6 °F 93% 29.07 in 4.0 mi NE 20.7 mph 27.6 mph 0.00 in Snow Light Snow
10:53 AM 28.0 °F 13.9 °F 25.0 °F 88% 29.07 in 3.0 mi NE 23.0 mph 33.4 mph 0.00 in Snow Light Snow
11:53 AM 27.0 °F 14.7 °F 25.0 °F 92% 29.08 in 7.0 mi NE 16.1 mph - 0.01 in   Overcast
12:17 PM 28.4 °F 16.2 °F 24.8 °F 86% 29.08 in 10.0 mi NE 17.3 mph - N/A   Overcast
12:41 PM 28.4 °F 17.0 °F 26.6 °F 93% 29.09 in 4.0 mi NE 15.0 mph 21.9 mph 0.00 in Snow Light Snow
12:53 PM 28.0 °F 17.0 °F 26.1 °F 92% 29.10 in 4.0 mi NE 13.8 mph - 0.00 in Snow Light Snow
1:02 PM 28.4 °F 17.0 °F 26.6 °F 93% 29.10 in 7.0 mi NE 15.0 mph - 0.00 in Snow Light Snow
1:53 PM 30.9 °F 20.7 °F 28.9 °F 92% 29.11 in 7.0 mi ENE 13.8 mph - 0.00 in   Overcast
2:15 PM 30.2 °F 19.8 °F 30.2 °F 100% 29.12 in 1.8 mi ENE 13.8 mph - 0.00 in Snow Light Snow
2:23 PM 30.2 °F 20.2 °F 30.2 °F 100% 29.12 in 2.0 mi East 12.7 mph - 0.00 in Snow Light Snow
2:45 PM 30.2 °F 18.1 °F 28.4 °F 93% 29.13 in 5.0 mi East 18.4 mph 24.2 mph 0.00 in Snow Light Snow
2:53 PM 30.9 °F 19.4 °F 28.0 °F 89% 29.14 in 9.0 mi East 17.3 mph 24.2 mph 0.00 in Snow Light Snow
3:53 PM 30.9 °F 21.2 °F 27.0 °F 85% 29.15 in 10.0 mi ENE 12.7 mph - 0.00 in   Overcast
4:53 PM 33.1 °F 23.0 °F 25.0 °F 72% 29.16 in 10.0 mi East 15.0 mph - N/A   Overcast
5:53 PM 30.2 °F 18.5 °F 24.8 °F 80% 29.18 in 10.0 mi East 17.3 mph - N/A   Overcast
6:53 PM 30.0 °F 19.5 °F 24.1 °F 79% 29.21 in 10.0 mi East 13.8 mph - N/A   Overcast
7:53 PM 28.9 °F 20.4 °F 23.0 °F 78% 29.24 in 10.0 mi East 9.2 mph - N/A   Overcast
8:53 PM 28.0 °F 19.3 °F 23.0 °F 81% 29.25 in 10.0 mi ENE 9.2 mph - N/A   Overcast
9:53 PM 27.0 °F 18.0 °F 23.0 °F 85% 29.25 in 10.0 mi East 9.2 mph - N/A   Mostly Cloudy
10:53 PM 28.0 °F 18.6 °F 24.1 °F 85% 29.25 in 10.0 mi East 10.4 mph - N/A   Mostly Cloudy
11:53 PM 28.9 °F 19.8 °F 25.0 °F 85% 29.23 in 10.0 mi ENE 10.4 mph - N/A   Overcast